{"data":{"norad_id":62492,"intl_designator":"2025-003F","name":"STARLINK-32757","alt_names":[],"object_type":"PAYLOAD","status":"ACTIVE","operator":null,"country":"US","launch_date":"2025-01-06","launch_site_code":"AFETR","launch_vehicle":null,"mission":null,"orbit_class":"UNKNOWN","rcs_meters":null,"size_class":null,"mass_kg":null,"dimensions":null,"purposes":["comms"],"wikipedia_slug":null,"has_3d_model":false,"image_url":null,"decayed_at":null,"tle_current":{"epoch":"2026-05-25T05:17:43.255392Z","epoch_age_seconds":46241,"freshness":"FRESH","line1":"1 62492U 25003F   26145.22063953  .00009440  00000+0  35206-3 0  9996","line2":"2 62492  43.0001 216.9626 0001122 281.1915  78.8810 15.27584425 78255","mean_motion":15.27584425,"eccentricity":0.0001122,"inclination_deg":43.0001,"raan_deg":216.9626,"arg_perigee_deg":281.1915,"mean_anomaly_deg":78.881,"bstar":0.00035206,"rev_number":7825,"period_min":94.26647564831,"perigee_km":482.26602243643,"apogee_km":483.80566962308,"semimajor_km":6861.1728460298,"source":"CELESTRAK","updated_at":"2026-05-25T13:38:19.697141Z"}}}